CW8429 Weather Reports


time (UTC)temp
F
wind
direction
speed
knots
gust
knots
rain 1hr
in
rain 24hr
in
rain mn
in
humidity
%
barometer
mb
20260906234626 76 101 2.6 9.6 0.00 0.00 0.00 32 1014.0
20260906233616 76 13 1.7 5.2 0.00 0.00 0.00 31 1014.0
20260906232625 76 84 2.6 8.7 0.00 0.00 0.00 32 1014.2
20260906231618 76 192 2.6 8.7 0.00 0.00 0.00 31 1014.2
20260906230628 76 145 2.6 7.0 0.00 0.00 0.00 31 1014.1
20260906225631 77 238 2.6 7.8 0.00 0.00 0.00 31 1014.1
20260906224622 77 190 2.6 7.8 0.00 0.00 0.00 30 1014.3
20260906223616 77 154 3.5 8.7 0.00 0.00 0.00 29 1014.3
20260906222625 78 169 4.3 7.8 0.00 0.00 0.00 29 1014.4
20260906221616 77 134 4.3 14.8 0.00 0.00 0.00 28 1014.5
20260906220628 77 88 4.3 9.6 0.00 0.00 0.00 27 1014.5
20260906215630 77 99 6.1 11.3 0.00 0.00 0.00 28 1014.5
20260906214621 78 221 4.3 10.4 0.00 0.00 0.00 27 1014.5
20260906213631 78 304 5.2 9.6 0.00 0.00 0.00 26 1014.5
20260906212624 78 94 4.3 16.5 0.00 0.00 0.00 26 1014.5
20260906211636 79 86 7.8 14.8 0.00 0.00 0.00 22 1014.2
20260906210645 80 269 5.2 12.2 0.00 0.00 0.00 24 1014.5
20260906205625 79 230 4.3 11.3 0.00 0.00 0.00 25 1014.7
20260906204615 79 134 4.3 12.2 0.00 0.00 0.00 24 1014.8
20260906203627 79 153 7.8 13.0 0.00 0.00 0.00 23 1015.0
20260906202639 78 194 5.2 13.0 0.00 0.00 0.00 24 1014.8
20260906201629 78 160 8.7 17.4 0.00 0.00 0.00 24 1015.0
20260906200620 78 138 6.1 13.9 0.00 0.00 0.00 23 1015.1
20260906195626 78 173 5.2 13.9 0.00 0.00 0.00 24 1015.2
20260906194637 78 154 6.1 12.2 0.00 0.00 0.00 24 1015.2
20260906193647 78 76 6.1 12.2 0.00 0.00 0.00 23 1015.2
20260906192616 78 5 5.2 15.6 0.00 0.00 0.00 23 1015.3
20260906191629 78 295 7.8 14.8 0.00 0.00 0.00 22 1015.3
20260906190619 78 98 8.7 12.2 0.00 0.00 0.00 22 1015.2
20260906185621 78 148 6.1 13.0 0.00 0.00 0.00 22 1015.6
20260906184631 77 300 4.3 13.0 0.00 0.00 0.00 24 1015.7
20260906183646 77 137 7.8 13.9 0.00 0.00 0.00 22 1015.9
20260906182635 77 149 6.1 11.3 0.00 0.00 0.00 23 1016.1
20260906181622 77 311 5.2 12.2 0.00 0.00 0.00 23 1016.4
20260906180617 77 69 5.2 11.3 0.00 0.00 0.00 23 1016.7
20260906175619 76 110 7.0 12.2 0.00 0.00 0.00 24 1016.8
20260906174613 76 155 7.0 13.0 0.00 0.00 0.00 23 1016.9
20260906173644 76 188 4.3 9.6 0.00 0.00 0.00 25 1017.0
20260906172632 76 113 2.6 9.6 0.00 0.00 0.00 27 1017.1
20260906171621 75 173 3.5 11.3 0.00 0.00 0.00 26 1017.1
20260906170617 75 145 5.2 12.2 0.00 0.00 0.00 27 1017.1
20260906165620 74 39 2.6 6.1 0.00 0.00 0.00 34 1017.3
20260906164630 72 320 1.7 5.2 0.00 0.00 0.00 37 1017.4
20260906163621 71 292 4.3 5.2 0.00 0.00 0.00 45 1017.6
20260906162636 70 299 4.3 7.0 0.00 0.00 0.00 46 1017.6
20260906161625 69 316 4.3 10.4 0.00 0.00 0.00 47 1017.6
20260906160615 69 13 4.3 8.7 0.00 0.00 0.00 46 1017.7
20260906155616 71 306 4.3 7.0 0.00 0.00 0.00 44 1017.7
20260906154628 71 35 3.5 4.3 0.00 0.00 0.00 34 1017.7
20260906153617 70 13 0.9 2.6 0.00 0.00 0.00 35 1017.7
20260906152648 68 22 0.9 4.3 0.00 0.00 0.00 36 1017.8
20260906151616 66 290 0.9 3.5 0.00 0.00 0.00 41 1017.8
20260906150629 63 290 1.7 2.6 0.00 0.00 0.00 45 1017.9
20260906145631 61 290 0.0 0.0 0.00 0.00 0.00 47 1017.9
20260906144619 58 290 0.0 0.0 0.00 0.00 0.00 48 1017.9
20260906143629 56 290 0.0 1.7 0.00 0.00 0.00 48 1017.9
20260906142623 54 290 0.9 2.6 0.00 0.00 0.00 48 1017.9
20260906141613 54 290 0.0 4.3 0.00 0.00 0.00 47 1017.8
20260906140623 55 288 1.7 3.5 0.00 0.00 0.00 46 1017.9
20260906135624 56 131 0.9 2.6 0.00 0.00 0.00 43 1017.7
20260906134618 57 131 1.7 5.2 0.00 0.00 0.00 41 1017.7
20260906133628 57 117 3.5 7.0 0.00 0.00 0.00 41 1017.6
20260906132617 56 128 4.3 6.1 0.00 0.00 0.00 41 1017.5
20260906131612 55 134 3.5 6.1 0.00 0.00 0.00 42 1017.5
20260906130622 55 165 1.7 4.3 0.00 0.00 0.00 43 1017.5
20260906125624 54 309 0.0 1.7 0.00 0.00 0.00 44 1017.4
20260906124634 55 310 0.0 0.0 0.00 0.00 0.00 44 1017.4
20260906123622 57 310 0.0 2.6 0.00 0.00 0.00 41 1017.4
20260906122617 58 310 0.9 3.5 0.00 0.00 0.00 40 1017.3
20260906121627 60 194 0.9 3.5 0.00 0.00 0.00 36 1017.3
20260906120618 59 186 2.6 6.1 0.00 0.00 0.00 37 1017.3
20260906115621 58 255 0.9 6.1 0.00 0.00 0.00 38 1017.3
20260906114616 57 243 1.7 3.5 0.00 0.00 0.00 39 1017.3
20260906113628 57 167 0.0 3.5 0.00 0.00 0.00 39 1017.5
20260906112619 57 159 0.0 2.6 0.00 0.00 0.00 37 1017.4
20260906111636 58 159 1.7 5.2 0.00 0.00 0.00 36 1017.4
20260906110647 59 174 2.6 3.5 0.00 0.00 0.00 34 1017.5
20260906105650 60 174 0.9 3.5 0.00 0.00 0.00 33 1017.5
20260906104620 61 174 0.9 2.6 0.00 0.00 0.00 32 1017.4
20260906103631 61 174 2.6 4.3 0.00 0.00 0.00 31 1017.3
20260906102627 61 161 1.7 5.2 0.00 0.00 0.00 32 1017.2
20260906101618 60 161 4.3 5.2 0.00 0.00 0.00 33 1017.2
20260906100629 58 128 3.5 4.3 0.00 0.00 0.00 34 1017.2
20260906095653 58 127 2.6 4.3 0.00 0.00 0.00 33 1017.3
20260906094626 59 126 2.6 5.2 0.00 0.00 0.00 33 1017.0
20260906093637 59 117 2.6 5.2 0.00 0.00 0.00 33 1016.9
20260906092627 59 117 2.6 5.2 0.00 0.00 0.00 33 1016.9
20260906091618 60 116 2.6 5.2 0.00 0.00 0.00 33 1016.9
20260906090635 59 114 1.7 5.2 0.00 0.00 0.00 33 1016.8
20260906085617 59 325 1.7 2.6 0.00 0.00 0.00 33 1016.9
20260906084628 60 325 0.9 3.5 0.00 0.00 0.00 34 1016.8
20260906083619 60 323 1.7 4.3 0.00 0.00 0.00 34 1016.8
20260906082614 61 348 3.5 5.2 0.00 0.00 0.00 33 1016.7
20260906081626 61 256 0.0 3.5 0.00 0.00 0.00 32 1016.8
20260906080637 61 202 0.9 3.5 0.00 0.00 0.00 31 1016.9
20260906075620 61 204 0.0 2.6 0.00 0.00 0.00 32 1016.9
20260906074615 62 204 0.0 2.6 0.00 0.00 0.00 30 1016.9
20260906073626 61 204 1.7 3.5 0.00 0.00 0.00 31 1016.9
20260906072616 61 150 1.7 3.5 0.00 0.00 0.00 34 1016.9
20260906071627 62 140 0.0 2.6 0.00 0.00 0.00 31 1016.9
20260906070622 62 140 1.7 4.3 0.00 0.00 0.00 30 1016.9
20260906065626 62 140 1.7 6.1 0.00 0.00 0.00 30 1017.0
20260906064617 61 137 3.5 7.0 0.00 0.00 0.00 31 1016.9
20260906063613 60 107 5.2 7.8 0.00 0.00 0.00 33 1017.0
20260906062623 60 118 0.0 5.2 0.00 0.00 0.00 33 1017.0
20260906061614 59 116 4.3 7.0 0.00 0.00 0.00 34 1016.9
20260906060630 59 182 2.6 3.5 0.00 0.00 0.00 34 1017.0
20260906055629 59 271 0.0 0.9 0.00 0.00 0.00 35 1017.1
20260906054623 59 271 0.0 2.6 0.00 0.00 0.00 36 1016.9
20260906053631 60 271 1.7 3.5 0.00 0.00 0.00 35 1016.9
20260906052622 62 256 1.7 3.5 0.00 0.00 0.00 33 1016.9
20260906051614 64 236 3.5 8.7 0.00 0.00 0.00 29 1016.9
20260906050628 64 175 4.3 6.1 0.00 0.00 0.00 29 1016.9
20260906045650 66 242 1.7 8.7 0.00 0.00 0.00 27 1017.0
20260906044618 67 119 6.1 9.6 0.00 0.00 0.00 25 1017.0
20260906043627 67 80 7.0 10.4 0.00 0.00 0.00 25 1017.0
20260906042622 67 163 6.1 9.6 0.00 0.00 0.00 25 1017.0
20260906041613 67 86 7.0 11.3 0.00 0.00 0.00 25 1016.9
20260906040623 66 112 6.1 9.6 0.00 0.00 0.00 26 1016.7
20260906035646 67 134 5.2 7.8 0.00 0.00 0.00 26 1016.7
20260906034619 67 116 5.2 9.6 0.00 0.00 0.00 25 1016.6
20260906033630 67 115 7.8 11.3 0.00 0.00 0.00 25 1016.4
20260906032619 67 118 8.7 10.4 0.00 0.00 0.00 25 1016.5
20260906031647 67 82 7.0 9.6 0.00 0.00 0.00 25 1016.5
20260906030620 67 113 7.0 8.7 0.00 0.00 0.00 25 1016.3
20260906025622 68 117 7.0 8.7 0.00 0.00 0.00 25 1016.2
20260906024612 69 119 5.2 7.8 0.00 0.00 0.00 24 1016.3
20260906023622 69 121 6.1 7.8 0.00 0.00 0.00 24 1016.1
20260906022637 71 120 4.3 7.0 0.00 0.00 0.00 23 1016.0
20260906021648 71 135 3.5 6.1 0.00 0.00 0.00 22 1015.9
20260906020618 72 126 4.3 6.1 0.00 0.00 0.00 22 1015.9
20260906015621 73 143 2.6 4.3 0.00 0.00 0.00 22 1015.9
20260906014617 75 143 0.9 3.5 0.00 0.00 0.00 20 1015.9
20260906013649 76 174 0.0 5.2 0.00 0.00 0.00 21 1016.0
20260906012620 76 136 0.9 3.5 0.00 0.00 0.00 20 1016.1
20260906011631 77 238 1.7 4.3 0.00 0.00 0.00 20 1016.2
20260906010625 77 81 1.7 5.2 0.00 0.00 0.00 20 1016.2
20260906005627 77 83 3.5 7.0 0.00 0.00 0.00 18 1016.2
20260906004616 78 196 2.6 7.0 0.00 0.00 0.00 19 1016.1
20260906003625 78 169 2.6 7.0 0.00 0.00 0.00 19 1016.0
20260906002619 79 328 2.6 8.7 0.00 0.00 0.00 18 1016.0
20260906001629 79 196 4.3 11.3 0.00 0.00 0.00 17 1015.9
20260906000621 80 125 3.5 13.9 0.00 0.00 0.00 16 1015.9
20260905235622 80 130 4.3 13.0 0.00 0.00 0.00 16 1016.0